Tracking 20748 objects as of 4-Jun-2020
HD Live streaming from Space Station
objects crossing your sky now
Track the most recent launched group of Starlink satellites

IRIDIUM 18


IRIDIUM 18 is no longer on orbit
IRIDIUM 18 is classified as:


NORAD ID: 24872
Int'l Code: 1997-034D
Perigee: N/A
Apogee: N/A
Inclination: N/A
Period: N/A
Semi major axis: N/A
RCS: N/A
Launch date: July 9, 1997
Source: United States (US)
Launch site: AIR FORCE WESTERN TEST RANGE (AFWTR)
Decay date: 2018-08-19
aabbcc
Your satellite tracking list
Your tracking list is empty




NASA's NSSDC Master Catalog

Two Line Element Set (TLE):
1 24872U 97034D   18231.51646522  .16201721 -14869-5  18152-3 0  9996
2 24872  86.3501 195.4595 0021968  78.4687 281.9091 16.48748149106461
Source of the keplerian elements: AFSPC